Other Public Products
Issued by NWS Grand Forks, ND

Home | Current Version | Previous Version | Graphics & Text | Print | Product List | Glossary Off
Versions: 1 2 3 4 5 6 7 8 9 10 11 12 13 14 15 16 17 18 19 20 21 22 23 24 25 26 27 28 29 30 31 32 33 34 35 36 37 38 39 40 41 42 43 44 45 46 47 48 49 50

000
FPUS83 KFGF 310531
OPUFGF
PRAIRIE TO PINES WEATHER ROUNDUP
NATIONAL WEATHER SERVICE EASTERN NORTH DAKOTA/GRAND FORKS ND
1100 PM CST FRI JAN 30 2015

 **SATELLITE DATA USED TO AUGMENT SKY COVER AT AUTOMATED STATIONS**
 *****  WEATHER ACROSS EASTERN NORTH DAKOTA  *****

CITY           SKY/WX    TMP DP  RH WIND       PRES   REMARKS
GRAND FORKS    CLOUDY    21  15  78 N22       30.22R WCI   5
GRAND FORKS AF CLOUDY    21  16  79 N16       30.22R WCI   7
GRAND CITY NWS   N/A     18 N/A N/A N24         N/A  WCI   0
BUXTON           N/A     23  20  87 N12         N/A  WCI  12
DEVILS LAKE    CLOUDY    19  12  73 N15       30.21R WCI   5
FARGO          CLOUDY    27  22  81 N17       30.17R WCI  14
WAHPETON ARPT  FAIR      27  23  86 N10       30.15R WCI  17
$$

 *****  WEATHER ACROSS CENTRAL AND WESTERN NORTH DAKOTA  *****

CITY           SKY/WX    TMP DP  RH WIND       PRES   REMARKS
JAMESTOWN      CLOUDY    25  22  88 N15       30.17S WCI  13
BISMARCK       CLOUDY    28  24  85 NE8       30.18F WCI  20
MINOT          CLOUDY    24  19  81 N12       30.22R WCI  13
MINOT AFB      CLOUDY    23  22  99 NE12      30.22S WCI  11
GARRISON         N/A     24  22  91 N8        30.19S WCI  15
WILLISTON      CLOUDY    23  21  92 NE12      30.21R FOG     WCI  12
DICKINSON      CLEAR     27  22  81 NE7       30.12S WCI  19
HETTINGER      CLEAR     22  19  89 CALM      30.14S
$$

 *****  OTHER OBSERVATIONS NORTHEAST NORTH DAKOTA  *****

CITY           SKY/WX    TMP DP  RH WIND       PRES   REMARKS
WALHALLA         N/A     16  14  93 N17       30.28R WCI   0
LANGDON        NOT AVBL
CAVALIER       CLOUDY    16  12  86 N15G24    30.26R WCI   1
GRAFTON        NOT AVBL
CANDO          CLOUDY    18  14  86 N12       30.24R WCI   5
FORT TOTTEN    NOT AVBL
ROLLA          CLOUDY    16  16 100 NE14      30.22S WCI   1
RUGBY          CLOUDY    19  18  93 NE12      30.22S WCI   7
 ***** THE ABOVE OBSERVATIONS ARE NON NWS ARE NOT QUALITY
        CONTROLLED AND MAY MIS-REPORT RAIN FOR SNOW...
$$

 *****  OTHER OBSERVATIONS SOUTHEAST NORTH DAKOTA *****

CITY           SKY/WX    TMP DP  RH WIND       PRES   REMARKS
COOPERSTOWN    NOT AVBL
VALLEY CITY    CLOUDY    25  25 100 N18       30.17F WCI  11
OAKES            N/A     25  25 100 N20       30.17R WCI  11
GWINNER        CLOUDY    30  30 100 N13       30.18R WCI  20
BUFFALO        NOT AVBL
WYNDMERE         N/A     27  25  93 N10         N/A  WCI  17
 ***** THE ABOVE OBSERVATIONS ARE NON NWS ARE NOT QUALITY
       CONTROLLED AND MAY MIS-REPORT RAIN FOR SNOW...
$$

  *****  WEATHER ACROSS NORTHERN MINNESOTA  *****

CITY           SKY/WX    TMP DP  RH WIND       PRES   REMARKS
FLAG ISLAND    CLOUDY    14  10  85 NW18      30.14R WCI  -3
WARROAD        CLOUDY    18  12  79 NW12      30.16R WCI   5
ROSEAU         CLOUDY    19  16  86 N9        30.17R WCI   9
HALLOCK        CLOUDY    18  12  79 N20       30.22S WCI   1
THF RVR FALLS  CLOUDY    19  18  93 NW16      30.17R WCI   5
HALSTAD          N/A     24  18  77 N16         N/A  WCI  10
FOSSTON        CLOUDY    21  19  93 NW10      30.14R WCI  10
BAUDETTE       CLOUDY    17  11  77 CALM      30.11R
WASKISH        CLOUDY    19  14  79 CALM      30.11S
CROOKSTON      CLOUDY    21  18  86 N18       30.21R WCI   6
$$
  *****  WEATHER ACROSS CENTRAL AND WEST MINNESOTA  *****

CITY           SKY/WX    TMP DP  RH WIND       PRES   REMARKS
BEMIDJI        CLOUDY    23  20  85 W3        30.09S
PARK RAPIDS    CLOUDY    21  18  88 CALM      30.09S
WADENA         FAIR      14  12  92 CALM      30.09S FOG
DETROIT LAKES  MOCLDY    23  21  93 NW9       30.12S WCI  13
MOORHEAD       CLOUDY    27  27 100 N14       30.17S WCI  15
FERGUS FALLS   FAIR      23  21  93 N9        30.14F WCI  13
ELBOW LAKE     FAIR      22  21  95 NW8       30.11F WCI  13
MORRIS MN      FAIR      25  21  86 NW6       30.11S WCI  18
STAPLES        FAIR      18  18 100 CALM      30.09F
WHEATON        FAIR      25  23  93 NW10      30.16S WCI  15
$$
  *****  WEATHER ELSEWHERE ACROSS MINNESOTA  *****

CITY           SKY/WX    TMP DP  RH WIND       PRES   REMARKS
DULUTH         CLOUDY    18   8  65 SW7       30.11F WCI   9
INTRNTL FALLS  CLOUDY    15   9  76 CALM      30.10S
ELY            FLURRIES  12   9  85 SW3       30.08F
CLOQUET        CLOUDY    19  10  68 CALM      30.12S
BRAINERD       CLOUDY    24  18  77 SW6       30.11F WCI  17
HIBBING        CLOUDY    17   7  64 CALM      30.11F
ALEXANDRIA     FAIR      19  16  88 SW6       30.10F WCI  11
SAINT CLOUD    FAIR      22  18  85 S3        30.12F
MINNEAPOLIS    FAIR      25  19  78 S3        30.17F
$$

  *****  WEATHER ACROSS SOUTH DAKOTA  *****

CITY           SKY/WX    TMP DP  RH WIND       PRES   REMARKS
SIOUX FALLS    FAIR      32  26  78 SW6       30.13F
BROOKINGS      NOT AVBL
WATERTOWN      FAIR      23  20  88 N5        30.11S WCI  17
HURON          CLEAR     24  22  91 NW9       30.13F WCI  14
SISSETON         N/A     30  27  88 N15       30.13S WCI  19
ABERDEEN       PTCLDY    29  26  89 N16       30.17R WCI  17
MITCHELL       CLEAR     29  25  85 CALM      30.13F
PIERRE         PTCLDY    27  22  81 CALM      30.12F
MOBRIDGE       CLEAR     26  23  88 N5        30.12S WCI  20
RAPID CITY     CLOUDY    29  22  75 N9        30.11F WCI  20
$$

  *****  SOME WEATHER IN NEARBY STATES *****

CITY           SKY/WX    TMP DP  RH WIND       PRES   REMARKS
GLASGOW MT     PTCLDY    30  25  81 E13       30.09F WCI  20
GREAT FALLS MT CLEAR     29  19  66 S14       30.01S WCI  18
CHEYENNE WY    CLOUDY    33  22  63 N9        30.05F
SCOTTSBLUFF NE CLOUDY    36  27  69 NW6       30.07F
OMAHA NE       CLOUDY    32  25  75 S8        30.26F WCI  25
DES MOINES IA  FAIR      28  16  60 S8        30.29F WCI  20
DAVENPORT IA   FAIR      20  14  77 S7        30.35F WCI  11
CHICAGO IL     FAIR      20  12  71 S5        30.36F WCI  13
EAU CLAIRE WI  CLOUDY    17   8  67 E3        30.21F
LA CROSSE WI   FAIR      25  12  58 S10       30.25F WCI  15
$$

  *****  SOME NATIONAL WEATHER *****

CITY           SKY/WX    TMP DP  RH WIND       PRES   REMARKS
LA GUARDIA NY  FAIR      20   7  57 NW28G35   30.01R WCI   2
RALEIGH NC     FAIR      29   7  39 NW3       30.32R
ATLANTA GA     FAIR      36  19  50 NW7       30.34S
NEW ORLEANS LA FAIR      51  38  60 NE9       30.34F
OKLAHOMA CITY  CLOUDY    44  25  47 E7        30.30F
ALBUQUERQUE NM CLOUDY    37  31  78 NE8       30.05S
SALT LAKE CITY CLOUDY    41  36  82 W8        29.97F
LOS ANGELES CA PTCLDY    60  56  86 S3        29.86S
BOISE ID       CLEAR     32  27  81 CALM      30.15S
SEATTLE WA     FOG       39  37  93 CALM      30.26S VSB 1/2
$$

*** WEATHER ACROSS MANITOBA...SASKATCHEWAN AND ONTARIO ***
                ***ONTARIO***

CITY           SKY/WX    TMP DP  RH WIND       PRES   REMARKS
GERALDTON      FLURRIES   1  -4  78 SW5       30.08F WCI  -8
THUNDER BAY    LGT SNOW   9   7  92 NW2       30.15F
SIOUX LOOKOUT  FLURRIES   7   3  85 W5        30.06F WCI  -2
TORONTO        PTCLDY     1  -6  71 W5        30.36S WCI  -8
BIG TROUT LK   FLURRIES -11 -18  70 N12G20    30.10R WCI -31
PICKLE LAKE    NOT AVBL
DRYDEN         FLURRIES   9   5  85 W7        30.07S WCI  -3
KENORA         FLURRIES  10   7  85 NW7       30.11R WCI   0
$$
                *** MANITOBA***

CITY           SKY/WX    TMP DP  RH WIND       PRES   REMARKS
BRANDON        MOCLDY     9   3  78 N12       30.30R WCI  -6
DAUPHIN        CLEAR      0  -6  78 NW6       30.39R WCI -12
ISLAND LAKE    PTCLDY   -13 -20  70 N13G21    30.27R WCI -34
PILOT MOUND      N/A     14  10  85 N12         N/A  WCI   0
THE PAS        PTCLDY    -9 -17  70 N15G22    30.47R WCI -31
THOMPSON       NOT AVBL
WINNIPEG       PTCLDY     9   1  72 N20G25    30.30R WCI -11
LYNN LAKE      CLEAR    -26 -33  68 NW12G18   30.47R WCI -49
CHURCHILL      BLWGSNOW -24 -31  69 NW31G40   30.24R VSB 1/4 WCI -59
GILLAM         CLEAR    -26 -35  62 NW15      30.32R WCI -52
$$
                ***SASKATCHEWAN***

CITY           SKY/WX    TMP DP  RH WIND       PRES   REMARKS
ESTEVAN        FLURRIES  21  16  79 N9        30.23S WCI  11
KINDERSLEY     LGT SNOW  16  12  86 E20       30.25R WCI  -1
LLOYDMINSTER   CLOUDY     7  -2  66 NE17      30.39R WCI -12
PRINCE ALBERT  CLOUDY     1  -6  71 N10       30.48R WCI -14
REGINA         FLURRIES  14  10  85 NE12      30.28R WCI   0
YORKTON        MOCLDY     5   1  85 N8        30.34R WCI  -8



USA.gov is the U.S. government's official web portal to all federal, state and local government web resources and services.